Location: Clanezzo
(45.7500°N, 9.6000°E)
Time: 12:00:57
(UTC+00:00)

Iridium 4 Rocket - Pass Details

Date: 12 May 2021
Orbit: 583 x 906 km, 86.9° (Epoch: 19 June)

Event Time Altitude Azimuth Distance (km) Brightness Sun altitude
Exits shadow 20:47:24 22° 177° (S) 1,836 5.0 -17.4°
Maximum altitude 20:51:19 84° 91° (E) 910 3.8 -17.8°
Drops below altitude 10° 20:57:16 10° 4° (N) 2,599 7.0 -18.4°
Sets 20:59:45 0° 4° (N) 3,537 7.8 -18.7°
